owner,sensor,date,latitude,longitude,vertical_datum,sea_water_temperature,qcFlag
W and T,ioos:station:wmo:42901:1,2020-02-04T01:00:00Z,30.3401,-88.5113,0.0,17.5,11111222
W and T,ioos:station:wmo:42901:1,2020-02-04T01:20:00Z,30.3401,-88.5113,0.0,16.8,11111222
W and T,ioos:station:wmo:42901:1,2020-02-04T01:40:00Z,30.3401,-88.5113,0.0,16.5,11111222
W and T,ioos:station:wmo:42901:1,2020-02-04T02:00:00Z,30.3401,-88.5113,0.0,16.4,11111222
W and T,ioos:station:wmo:42901:1,2020-02-04T02:20:00Z,30.3401,-88.5113,0.0,16.5,11111222
W and T,ioos:station:wmo:42901:1,2020-02-04T02:40:00Z,30.3401,-88.5113,0.0,16.4,11111222
W and T,ioos:station:wmo:42901:1,2020-02-04T03:00:00Z,30.3401,-88.5113,0.0,16.2,11111222
W and T,ioos:station:wmo:42901:1,2020-02-04T03:20:00Z,30.3401,-88.5113,0.0,16.4,11111222
W and T,ioos:station:wmo:42901:1,2020-02-04T03:40:00Z,30.3401,-88.5113,0.0,16.5,11111222
W and T,ioos:station:wmo:42901:1,2020-02-04T04:00:00Z,30.3401,-88.5113,0.0,16.7,11111222
W and T,ioos:station:wmo:42901:1,2020-02-04T04:20:00Z,30.3401,-88.5113,0.0,16.9,11111222
W and T,ioos:station:wmo:42901:1,2020-02-04T04:40:00Z,30.3401,-88.5113,0.0,17.1,11111222
W and T,ioos:station:wmo:42901:1,2020-02-04T05:00:00Z,30.3401,-88.5113,0.0,17.2,11111222
W and T,ioos:station:wmo:42901:1,2020-02-04T05:20:00Z,30.3401,-88.5113,0.0,17.1,11111222
W and T,ioos:station:wmo:42901:1,2020-02-04T05:40:00Z,30.3401,-88.5113,0.0,17.1,11111222
W and T,ioos:station:wmo:42901:1,2020-02-04T06:00:00Z,30.3401,-88.5113,0.0,17.2,11111222
W and T,ioos:station:wmo:42901:1,2020-02-04T06:20:00Z,30.3401,-88.5113,0.0,17.3,11111222
W and T,ioos:station:wmo:42901:1,2020-02-04T06:40:00Z,30.3401,-88.5113,0.0,17.4,11111222
W and T,ioos:station:wmo:42901:1,2020-02-04T07:00:00Z,30.3401,-88.5113,0.0,17.4,11111222
W and T,ioos:station:wmo:42901:1,2020-02-04T07:20:00Z,30.3401,-88.5113,0.0,17.5,11111222
W and T,ioos:station:wmo:42901:1,2020-02-04T07:40:00Z,30.3401,-88.5113,0.0,17.6,11111222
W and T,ioos:station:wmo:42901:1,2020-02-04T08:00:00Z,30.3401,-88.5113,0.0,17.6,11111222
W and T,ioos:station:wmo:42901:1,2020-02-04T08:20:00Z,30.3401,-88.5113,0.0,17.6,11111222
W and T,ioos:station:wmo:42901:1,2020-02-04T08:40:00Z,30.3401,-88.5113,0.0,17.7,11111222
W and T,ioos:station:wmo:42901:1,2020-02-04T09:00:00Z,30.3401,-88.5113,0.0,17.7,11111222
W and T,ioos:station:wmo:42901:1,2020-02-04T09:20:00Z,30.3401,-88.5113,0.0,17.8,11111222
W and T,ioos:station:wmo:42901:1,2020-02-04T09:40:00Z,30.3401,-88.5113,0.0,17.8,11111222
W and T,ioos:station:wmo:42901:1,2020-02-04T10:00:00Z,30.3401,-88.5113,0.0,17.8,11111222
W and T,ioos:station:wmo:42901:1,2020-02-04T10:20:00Z,30.3401,-88.5113,0.0,17.5,11111222
W and T,ioos:station:wmo:42901:1,2020-02-04T10:40:00Z,30.3401,-88.5113,0.0,17.4,11111222
W and T,ioos:station:wmo:42901:1,2020-02-04T11:00:00Z,30.3401,-88.5113,0.0,17.3,11111222
W and T,ioos:station:wmo:42901:1,2020-02-04T11:20:00Z,30.3401,-88.5113,0.0,17.5,11111222
W and T,ioos:station:wmo:42901:1,2020-02-04T11:40:00Z,30.3401,-88.5113,0.0,17.6,11111222
W and T,ioos:station:wmo:42901:1,2020-02-04T12:00:00Z,30.3401,-88.5113,0.0,17.8,11111222
W and T,ioos:station:wmo:42901:1,2020-02-04T12:20:00Z,30.3401,-88.5113,0.0,17.6,11111222
W and T,ioos:station:wmo:42901:1,2020-02-04T12:40:00Z,30.3401,-88.5113,0.0,17.6,11111222
W and T,ioos:station:wmo:42901:1,2020-02-04T13:00:00Z,30.3401,-88.5113,0.0,17.9,11111222
W and T,ioos:station:wmo:42901:1,2020-02-04T13:20:00Z,30.3401,-88.5113,0.0,18.0,11111222
W and T,ioos:station:wmo:42901:1,2020-02-04T13:40:00Z,30.3401,-88.5113,0.0,18.4,11111222
W and T,ioos:station:wmo:42901:1,2020-02-04T14:00:00Z,30.3401,-88.5113,0.0,19.0,11111222
W and T,ioos:station:wmo:42901:1,2020-02-09T00:40:00Z,29.1184,-88.3564,37.4,20.3,11111222
W and T,ioos:station:wmo:42901:1,2020-02-09T01:00:00Z,29.1184,-88.3564,37.4,20.7,11111222
W and T,ioos:station:wmo:42901:1,2020-02-09T01:20:00Z,29.1184,-88.3564,37.5,20.8,11111222
W and T,ioos:station:wmo:42901:1,2020-02-09T01:40:00Z,29.1184,-88.3564,37.5,20.9,11111222
W and T,ioos:station:wmo:42901:1,2020-02-09T02:00:00Z,29.1184,-88.3564,37.5,20.9,11111222
W and T,ioos:station:wmo:42901:1,2020-02-09T02:20:00Z,29.1184,-88.3564,37.4,20.9,11111222
W and T,ioos:station:wmo:42901:1,2020-02-09T02:40:00Z,29.1184,-88.3564,37.5,21.0,11111222
W and T,ioos:station:wmo:42901:1,2020-02-09T03:00:00Z,29.1184,-88.3564,37.4,20.9,11111222
W and T,ioos:station:wmo:42901:1,2020-02-09T03:20:00Z,29.1186,-88.3566,37.4,20.8,11111222
W and T,ioos:station:wmo:42901:1,2020-02-09T03:40:00Z,29.1200,-88.3584,37.3,20.5,11111222
W and T,ioos:station:wmo:42901:1,2020-02-09T04:00:00Z,29.1216,-88.3608,37.4,20.9,11111222
W and T,ioos:station:wmo:42901:1,2020-02-09T04:20:00Z,29.1225,-88.3624,37.5,21.0,11111222
W and T,ioos:station:wmo:42901:1,2020-02-09T04:40:00Z,29.1225,-88.3624,37.4,20.9,11111222
W and T,ioos:station:wmo:42901:1,2020-02-09T05:00:00Z,29.1225,-88.3624,37.3,20.7,11111222
W and T,ioos:station:wmo:42901:1,2020-02-09T05:20:00Z,29.1225,-88.3624,37.3,20.5,11111222
W and T,ioos:station:wmo:42901:1,2020-02-09T05:40:00Z,29.1225,-88.3624,37.4,20.2,11111222
W and T,ioos:station:wmo:42901:1,2020-02-09T06:00:00Z,29.1225,-88.3624,37.3,20.3,11111222
W and T,ioos:station:wmo:42901:1,2020-02-09T06:20:00Z,29.1225,-88.3624,37.3,20.5,11111222
W and T,ioos:station:wmo:42901:1,2020-02-09T06:40:00Z,29.1225,-88.3624,37.3,20.5,11111222
W and T,ioos:station:wmo:42901:1,2020-02-09T07:00:00Z,29.1225,-88.3624,37.3,20.5,11111222
W and T,ioos:station:wmo:42901:1,2020-02-09T07:20:00Z,29.1225,-88.3624,37.3,20.6,11111222
W and T,ioos:station:wmo:42901:1,2020-02-09T07:40:00Z,29.1225,-88.3624,37.4,20.9,11111222
W and T,ioos:station:wmo:42901:1,2020-02-09T08:00:00Z,29.1225,-88.3624,37.5,20.8,11111222
W and T,ioos:station:wmo:42901:1,2020-02-09T08:20:00Z,29.1225,-88.3624,37.4,21.1,11111222
W and T,ioos:station:wmo:42901:1,2020-02-09T08:40:00Z,29.1225,-88.3624,37.5,21.2,11111222
W and T,ioos:station:wmo:42901:1,2020-02-09T09:00:00Z,29.1225,-88.3624,37.5,21.2,11111222
W and T,ioos:station:wmo:42901:1,2020-02-09T09:20:00Z,29.1225,-88.3624,37.6,21.2,11111222
W and T,ioos:station:wmo:42901:1,2020-02-09T09:40:00Z,29.1225,-88.3624,37.6,21.2,11111222
W and T,ioos:station:wmo:42901:1,2020-02-09T10:00:00Z,29.1225,-88.3624,37.5,21.1,11111222
W and T,ioos:station:wmo:42901:1,2020-02-09T10:20:00Z,29.1225,-88.3624,37.3,21.0,11111222
W and T,ioos:station:wmo:42901:1,2020-02-09T10:40:00Z,29.1225,-88.3624,37.3,20.9,11111222
W and T,ioos:station:wmo:42901:1,2020-02-09T11:00:00Z,29.1225,-88.3624,37.2,20.9,11111222
W and T,ioos:station:wmo:42901:1,2020-02-09T11:20:00Z,29.1225,-88.3624,37.2,20.9,11111222
W and T,ioos:station:wmo:42901:1,2020-02-09T11:40:00Z,29.1225,-88.3624,37.2,20.9,11111222
W and T,ioos:station:wmo:42901:1,2020-02-09T12:00:00Z,29.1225,-88.3624,37.2,21.0,11111222
W and T,ioos:station:wmo:42901:1,2020-02-09T12:20:00Z,29.1225,-88.3624,37.2,21.1,11111222
W and T,ioos:station:wmo:42901:1,2020-02-09T12:40:00Z,29.1225,-88.3624,37.2,21.2,11111222
W and T,ioos:station:wmo:42901:1,2020-02-09T13:00:00Z,29.1225,-88.3624,37.2,21.0,11111222
W and T,ioos:station:wmo:42901:1,2020-02-09T13:20:00Z,29.1225,-88.3624,37.3,21.1,11111222
W and T,ioos:station:wmo:42901:1,2020-02-09T13:40:00Z,29.1225,-88.3624,37.3,21.1,11111222
W and T,ioos:station:wmo:42901:1,2020-02-09T14:00:00Z,29.1225,-88.3624,37.2,21.1,11111222
W and T,ioos:station:wmo:42901:1,2020-02-09T14:20:00Z,29.1225,-88.3624,37.2,21.0,11111222
W and T,ioos:station:wmo:42901:1,2020-02-09T14:40:00Z,29.1225,-88.3624,37.1,21.0,11111222
W and T,ioos:station:wmo:42901:1,2020-02-09T15:00:00Z,29.1225,-88.3624,37.5,20.9,11111222
W and T,ioos:station:wmo:42901:1,2020-02-09T15:20:00Z,29.1225,-88.3624,37.7,20.9,11111222
W and T,ioos:station:wmo:42901:1,2020-02-09T15:40:00Z,29.1225,-88.3624,37.5,20.9,11111222
W and T,ioos:station:wmo:42901:1,2020-02-09T16:00:00Z,29.1225,-88.3624,37.5,20.9,11111222
W and T,ioos:station:wmo:42901:1,2020-02-09T16:20:00Z,29.1225,-88.3624,37.5,20.9,11111222
W and T,ioos:station:wmo:42901:1,2020-02-09T16:40:00Z,29.1225,-88.3624,37.4,20.9,11111222
W and T,ioos:station:wmo:42901:1,2020-02-09T17:00:00Z,29.1225,-88.3624,37.6,21.1,11111222
W and T,ioos:station:wmo:42901:1,2020-02-09T17:20:00Z,29.1225,-88.3624,37.4,21.1,11111222
W and T,ioos:station:wmo:42901:1,2020-02-09T17:40:00Z,29.1225,-88.3624,37.4,21.1,11111222
W and T,ioos:station:wmo:42901:1,2020-02-09T18:00:00Z,29.1225,-88.3624,37.4,21.0,11111222
W and T,ioos:station:wmo:42901:1,2020-02-09T18:20:00Z,29.1225,-88.3624,37.3,21.0,11111222
W and T,ioos:station:wmo:42901:1,2020-02-09T18:40:00Z,29.1225,-88.3624,37.3,21.0,11111222
W and T,ioos:station:wmo:42901:1,2020-02-09T19:00:00Z,29.1226,-88.3624,37.3,21.0,11111222
W and T,ioos:station:wmo:42901:1,2020-02-09T19:20:00Z,29.1226,-88.3624,37.5,21.0,11111222
W and T,ioos:station:wmo:42901:1,2020-02-09T19:40:00Z,29.1226,-88.3624,37.5,21.0,11111222
W and T,ioos:station:wmo:42901:1,2020-02-09T20:00:00Z,29.1226,-88.3624,37.6,21.0,11111222
W and T,ioos:station:wmo:42901:1,2020-02-09T20:20:00Z,29.1226,-88.3624,37.5,21.0,11111222
W and T,ioos:station:wmo:42901:1,2020-02-09T20:40:00Z,29.1226,-88.3624,37.7,21.0,11111222
W and T,ioos:station:wmo:42901:1,2020-02-09T21:00:00Z,29.1226,-88.3624,37.6,21.0,11111222
W and T,ioos:station:wmo:42901:1,2020-02-09T21:20:00Z,29.1226,-88.3623,37.6,20.9,11111222
W and T,ioos:station:wmo:42901:1,2020-02-09T21:40:00Z,29.1224,-88.3621,37.5,21.0,11111222
W and T,ioos:station:wmo:42901:1,2020-02-09T22:00:00Z,29.1224,-88.3619,37.6,21.0,11111222
W and T,ioos:station:wmo:42901:1,2020-02-09T22:20:00Z,29.1223,-88.3619,37.7,20.9,11111222
W and T,ioos:station:wmo:42901:1,2020-02-09T22:40:00Z,29.1222,-88.3619,37.7,21.0,11111222
W and T,ioos:station:wmo:42901:1,2020-02-09T23:00:00Z,29.1225,-88.3619,37.6,21.0,11111222
W and T,ioos:station:wmo:42901:1,2020-02-09T23:20:00Z,29.1234,-88.3615,37.7,20.9,11111222
W and T,ioos:station:wmo:42901:1,2020-02-09T23:40:00Z,29.1237,-88.3612,37.7,21.0,11111222
W and T,ioos:station:wmo:42901:1,2020-02-10T00:00:00Z,29.1236,-88.3611,37.6,20.9,11111222
W and T,ioos:station:wmo:42901:1,2020-02-10T00:20:00Z,29.1236,-88.3610,37.6,20.8,11111222
W and T,ioos:station:wmo:42901:1,2020-02-10T00:40:00Z,29.1236,-88.3610,37.6,20.8,11111222
W and T,ioos:station:wmo:42901:1,2020-02-10T01:00:00Z,29.1235,-88.3609,37.6,20.8,11111222
W and T,ioos:station:wmo:42901:1,2020-02-10T01:20:00Z,29.1234,-88.3609,37.9,20.8,11111222
W and T,ioos:station:wmo:42901:1,2020-02-10T01:40:00Z,29.1235,-88.3609,37.1,20.8,11111222
W and T,ioos:station:wmo:42901:1,2020-02-10T02:20:00Z,29.1235,-88.3609,37.5,20.7,11111222
W and T,ioos:station:wmo:42901:1,2020-02-10T02:40:00Z,29.1235,-88.3609,37.5,20.8,11111222
W and T,ioos:station:wmo:42901:1,2020-02-10T03:00:00Z,29.1235,-88.3609,37.3,20.9,11111222
W and T,ioos:station:wmo:42901:1,2020-02-10T03:20:00Z,29.1235,-88.3609,37.2,20.8,11111222
W and T,ioos:station:wmo:42901:1,2020-02-10T03:40:00Z,29.1235,-88.3609,37.2,20.9,11111222
W and T,ioos:station:wmo:42901:1,2020-02-10T04:00:00Z,29.1235,-88.3609,37.2,20.9,11111222
W and T,ioos:station:wmo:42901:1,2020-02-10T04:20:00Z,29.1235,-88.3609,37.2,21.0,11111222
W and T,ioos:station:wmo:42901:1,2020-02-10T04:40:00Z,29.1235,-88.3609,37.2,20.9,11111222
W and T,ioos:station:wmo:42901:1,2020-02-10T05:00:00Z,29.1235,-88.3609,37.2,20.7,11111222
W and T,ioos:station:wmo:42901:1,2020-02-10T05:20:00Z,29.1235,-88.3609,37.3,20.3,11111222
W and T,ioos:station:wmo:42901:1,2020-02-10T05:40:00Z,29.1235,-88.3609,37.2,20.1,11111222
W and T,ioos:station:wmo:42901:1,2020-02-10T06:00:00Z,29.1235,-88.3609,37.2,20.1,11111222
W and T,ioos:station:wmo:42901:1,2020-02-10T06:20:00Z,29.1235,-88.3609,37.2,20.0,11111222
W and T,ioos:station:wmo:42901:1,2020-02-10T06:40:00Z,29.1235,-88.3609,37.2,20.4,11111222
W and T,ioos:station:wmo:42901:1,2020-02-10T07:00:00Z,29.1235,-88.3609,37.2,20.5,11111222
W and T,ioos:station:wmo:42901:1,2020-02-10T07:20:00Z,29.1235,-88.3609,37.2,20.5,11111222
W and T,ioos:station:wmo:42901:1,2020-02-10T07:40:00Z,29.1235,-88.3609,37.1,20.8,11111222
W and T,ioos:station:wmo:42901:1,2020-02-10T08:00:00Z,29.1235,-88.3609,37.2,20.9,11111222
W and T,ioos:station:wmo:42901:1,2020-02-10T08:20:00Z,29.1235,-88.3609,37.4,20.9,11111222
W and T,ioos:station:wmo:42901:1,2020-02-10T08:40:00Z,29.1235,-88.3609,37.5,20.9,11111222
W and T,ioos:station:wmo:42901:1,2020-02-10T09:00:00Z,29.1235,-88.3609,37.6,20.9,11111222
W and T,ioos:station:wmo:42901:1,2020-02-10T09:20:00Z,29.1235,-88.3609,37.6,20.8,11111222
W and T,ioos:station:wmo:42901:1,2020-02-10T09:40:00Z,29.1235,-88.3609,37.6,20.8,11111222
W and T,ioos:station:wmo:42901:1,2020-02-10T10:00:00Z,29.1235,-88.3609,37.7,20.9,11111222
W and T,ioos:station:wmo:42901:1,2020-02-10T10:20:00Z,29.1235,-88.3609,38.1,20.9,11111222
W and T,ioos:station:wmo:42901:1,2020-02-10T10:40:00Z,29.1235,-88.3609,38.5,20.9,11111222
W and T,ioos:station:wmo:42901:1,2020-02-10T11:00:00Z,29.1235,-88.3609,39.0,20.9,11111222
W and T,ioos:station:wmo:42901:1,2020-02-10T11:20:00Z,29.1235,-88.3609,39.0,20.9,11111222
W and T,ioos:station:wmo:42901:1,2020-02-10T11:40:00Z,29.1235,-88.3609,39.1,20.8,11111222
W and T,ioos:station:wmo:42901:1,2020-02-10T12:00:00Z,29.1235,-88.3609,39.1,20.8,11111222
W and T,ioos:station:wmo:42901:1,2020-02-10T12:20:00Z,29.1235,-88.3609,39.1,20.8,11111222
W and T,ioos:station:wmo:42901:1,2020-02-10T12:40:00Z,29.1235,-88.3609,39.1,20.8,11111222
W and T,ioos:station:wmo:42901:1,2020-02-10T13:00:00Z,29.1235,-88.3609,39.1,20.7,11111222
W and T,ioos:station:wmo:42901:1,2020-02-10T13:20:00Z,29.1235,-88.3609,39.1,20.8,11111222
W and T,ioos:station:wmo:42901:1,2020-02-10T13:40:00Z,29.1235,-88.3609,39.1,20.7,11111222
W and T,ioos:station:wmo:42901:1,2020-02-10T14:00:00Z,29.1235,-88.3609,39.2,20.7,11111222
W and T,ioos:station:wmo:42901:1,2020-02-10T14:20:00Z,29.1235,-88.3609,39.2,20.7,11111222
W and T,ioos:station:wmo:42901:1,2020-02-10T14:40:00Z,29.1235,-88.3609,39.2,20.7,11111222
W and T,ioos:station:wmo:42901:1,2020-02-10T15:00:00Z,29.1235,-88.3609,39.4,20.8,11111222
W and T,ioos:station:wmo:42901:1,2020-02-10T15:20:00Z,29.1235,-88.3609,39.5,20.8,11111222
W and T,ioos:station:wmo:42901:1,2020-02-10T15:40:00Z,29.1235,-88.3609,39.5,20.8,11111222
W and T,ioos:station:wmo:42901:1,2020-02-10T16:00:00Z,29.1235,-88.3609,39.5,20.9,11111222
W and T,ioos:station:wmo:42901:1,2020-02-10T16:20:00Z,29.1235,-88.3609,39.5,20.9,11111222
W and T,ioos:station:wmo:42901:1,2020-02-10T16:40:00Z,29.1235,-88.3609,39.4,20.8,11111222
W and T,ioos:station:wmo:42901:1,2020-02-10T17:00:00Z,29.1235,-88.3609,39.2,20.9,11111222
W and T,ioos:station:wmo:42901:1,2020-02-10T17:40:00Z,29.1235,-88.3609,39.0,20.8,11111222
W and T,ioos:station:wmo:42901:1,2020-02-10T18:00:00Z,29.1235,-88.3609,39.0,20.9,11111222
W and T,ioos:station:wmo:42901:1,2020-02-10T18:20:00Z,29.1235,-88.3609,39.0,21.0,11111222
W and T,ioos:station:wmo:42901:1,2020-02-10T18:40:00Z,29.1235,-88.3609,39.0,21.0,11111222
W and T,ioos:station:wmo:42901:1,2020-02-10T19:00:00Z,29.1235,-88.3609,38.9,21.0,11111222
W and T,ioos:station:wmo:42901:1,2020-02-10T19:20:00Z,29.1235,-88.3609,38.9,21.0,11111222
W and T,ioos:station:wmo:42901:1,2020-02-10T19:40:00Z,29.1235,-88.3609,38.9,21.0,11111222
W and T,ioos:station:wmo:42901:1,2020-02-10T20:00:00Z,29.1235,-88.3609,39.0,21.0,11111222
W and T,ioos:station:wmo:42901:1,2020-02-10T20:20:00Z,29.1235,-88.3609,39.2,21.0,11111222
W and T,ioos:station:wmo:42901:1,2020-02-10T20:40:00Z,29.1235,-88.3609,39.4,20.9,11111222
W and T,ioos:station:wmo:42901:1,2020-02-10T21:00:00Z,29.1235,-88.3609,39.4,20.9,11111222
W and T,ioos:station:wmo:42901:1,2020-02-10T21:20:00Z,29.1235,-88.3609,39.4,20.9,11111222
W and T,ioos:station:wmo:42901:1,2020-02-10T21:40:00Z,29.1235,-88.3609,39.4,20.9,11111222
W and T,ioos:station:wmo:42901:1,2020-02-10T22:00:00Z,29.1235,-88.3609,39.2,20.9,11111222
W and T,ioos:station:wmo:42901:1,2020-02-10T22:20:00Z,29.1235,-88.3609,39.4,21.0,11111222
W and T,ioos:station:wmo:42901:1,2020-02-10T22:40:00Z,29.1235,-88.3609,39.4,20.9,11111222
W and T,ioos:station:wmo:42901:1,2020-02-10T23:00:00Z,29.1235,-88.3609,39.4,20.9,11111222
W and T,ioos:station:wmo:42901:1,2020-02-10T23:20:00Z,29.1235,-88.3609,37.4,20.9,11111222
W and T,ioos:station:wmo:42901:1,2020-02-10T23:40:00Z,29.1235,-88.3609,37.4,20.9,11111222
W and T,ioos:station:wmo:42901:1,2020-02-11T00:00:00Z,29.1235,-88.3609,37.4,20.9,11111222
W and T,ioos:station:wmo:42901:1,2020-02-11T00:20:00Z,29.1235,-88.3609,37.5,21.0,11111222
W and T,ioos:station:wmo:42901:1,2020-02-11T00:40:00Z,29.1235,-88.3609,37.5,21.0,11111222
W and T,ioos:station:wmo:42901:1,2020-02-11T01:00:00Z,29.1235,-88.3609,37.1,21.0,11111222
W and T,ioos:station:wmo:42901:1,2020-02-11T01:20:00Z,29.1235,-88.3609,36.8,20.9,11111222
W and T,ioos:station:wmo:42901:1,2020-02-11T01:40:00Z,29.1235,-88.3609,36.9,20.9,11111222
W and T,ioos:station:wmo:42901:1,2020-02-11T02:00:00Z,29.1235,-88.3609,36.9,20.9,11111222
W and T,ioos:station:wmo:42901:1,2020-02-11T02:20:00Z,29.1235,-88.3609,36.8,20.9,11111222
W and T,ioos:station:wmo:42901:1,2020-02-11T02:40:00Z,29.1235,-88.3609,37.0,20.9,11111222
W and T,ioos:station:wmo:42901:1,2020-02-11T03:00:00Z,29.1235,-88.3609,37.0,20.9,11111222
W and T,ioos:station:wmo:42901:1,2020-02-11T03:20:00Z,29.1235,-88.3609,37.1,20.9,11111222
W and T,ioos:station:wmo:42901:1,2020-02-11T03:40:00Z,29.1235,-88.3609,37.0,20.8,11111222
W and T,ioos:station:wmo:42901:1,2020-02-11T04:00:00Z,29.1235,-88.3609,37.1,20.6,11111222
W and T,ioos:station:wmo:42901:1,2020-02-11T04:20:00Z,29.1235,-88.3609,37.0,20.8,11111222
W and T,ioos:station:wmo:42901:1,2020-02-11T04:40:00Z,29.1235,-88.3609,36.9,20.8,11111222
W and T,ioos:station:wmo:42901:1,2020-02-11T05:00:00Z,29.1235,-88.3609,37.0,20.8,11111222
W and T,ioos:station:wmo:42901:1,2020-02-11T05:20:00Z,29.1235,-88.3609,36.9,20.7,11111222
W and T,ioos:station:wmo:42901:1,2020-02-11T05:40:00Z,29.1235,-88.3609,36.9,20.6,11111222
W and T,ioos:station:wmo:42901:1,2020-02-11T06:00:00Z,29.1235,-88.3609,36.9,20.6,11111222
W and T,ioos:station:wmo:42901:1,2020-02-11T06:20:00Z,29.1235,-88.3609,36.9,20.5,11111222
W and T,ioos:station:wmo:42901:1,2020-02-11T06:40:00Z,29.1235,-88.3609,36.9,20.3,11111222
W and T,ioos:station:wmo:42901:1,2020-02-11T07:00:00Z,29.1235,-88.3609,37.0,20.3,11111222
W and T,ioos:station:wmo:42901:1,2020-02-11T07:20:00Z,29.1235,-88.3609,36.9,20.0,11111222
W and T,ioos:station:wmo:42901:1,2020-02-11T07:40:00Z,29.1235,-88.3609,36.9,19.9,11111222
W and T,ioos:station:wmo:42901:1,2020-02-11T08:00:00Z,29.1235,-88.3609,37.1,20.2,11111222
W and T,ioos:station:wmo:42901:1,2020-02-11T08:20:00Z,29.1235,-88.3609,37.0,20.3,11111222
W and T,ioos:station:wmo:42901:1,2020-02-11T08:40:00Z,29.1235,-88.3609,37.0,20.4,11111222
W and T,ioos:station:wmo:42901:1,2020-02-11T09:00:00Z,29.1235,-88.3609,37.0,20.4,11111222
W and T,ioos:station:wmo:42901:1,2020-02-11T09:20:00Z,29.1235,-88.3609,37.0,20.2,11111222
W and T,ioos:station:wmo:42901:1,2020-02-11T09:40:00Z,29.1235,-88.3609,37.0,20.1,11111222
W and T,ioos:station:wmo:42901:1,2020-02-11T10:00:00Z,29.1235,-88.3609,37.4,20.0,11111222
W and T,ioos:station:wmo:42901:1,2020-02-11T10:20:00Z,29.1235,-88.3609,37.0,19.8,11111222
W and T,ioos:station:wmo:42901:1,2020-02-11T10:40:00Z,29.1235,-88.3609,36.9,19.9,11111222
W and T,ioos:station:wmo:42901:1,2020-02-11T11:00:00Z,29.1235,-88.3609,37.2,19.9,11111222
W and T,ioos:station:wmo:42901:1,2020-02-11T11:20:00Z,29.1235,-88.3609,37.1,19.9,11111222
W and T,ioos:station:wmo:42901:1,2020-02-11T11:40:00Z,29.1235,-88.3609,37.2,19.9,11111222
W and T,ioos:station:wmo:42901:1,2020-02-11T12:00:00Z,29.1235,-88.3609,37.6,19.9,11111222
W and T,ioos:station:wmo:42901:1,2020-02-11T12:20:00Z,29.1235,-88.3609,37.4,20.1,11111222
W and T,ioos:station:wmo:42901:1,2020-02-11T12:40:00Z,29.1235,-88.3609,37.7,20.0,11111222
W and T,ioos:station:wmo:42901:1,2020-02-11T13:00:00Z,29.1235,-88.3609,37.8,20.0,11111222
W and T,ioos:station:wmo:42901:1,2020-02-11T13:20:00Z,29.1235,-88.3609,37.7,19.9,11111222
W and T,ioos:station:wmo:42901:1,2020-02-11T13:40:00Z,29.1235,-88.3609,37.7,20.0,11111222
W and T,ioos:station:wmo:42901:1,2020-02-11T14:00:00Z,29.1235,-88.3609,37.6,20.0,11111222
W and T,ioos:station:wmo:42901:1,2020-02-11T14:20:00Z,29.1235,-88.3609,37.6,20.0,11111222
W and T,ioos:station:wmo:42901:1,2020-02-11T14:40:00Z,29.1235,-88.3609,37.6,20.0,11111222
W and T,ioos:station:wmo:42901:1,2020-02-11T15:00:00Z,29.1235,-88.3609,37.5,20.0,11111222
W and T,ioos:station:wmo:42901:1,2020-02-11T15:20:00Z,29.1235,-88.3609,37.5,20.0,11111222
W and T,ioos:station:wmo:42901:1,2020-02-11T15:40:00Z,29.1235,-88.3609,37.5,20.0,11111222
W and T,ioos:station:wmo:42901:1,2020-02-11T16:00:00Z,29.1235,-88.3609,37.4,20.0,11111222
W and T,ioos:station:wmo:42901:1,2020-02-11T16:20:00Z,29.1235,-88.3609,37.5,20.0,11111222
W and T,ioos:station:wmo:42901:1,2020-02-11T16:40:00Z,29.1235,-88.3609,37.6,20.0,11111222
W and T,ioos:station:wmo:42901:1,2020-02-11T17:00:00Z,29.1235,-88.3609,37.8,20.0,11111222
W and T,ioos:station:wmo:42901:1,2020-02-11T17:20:00Z,29.1235,-88.3609,37.8,20.1,11111222
W and T,ioos:station:wmo:42901:1,2020-02-11T17:40:00Z,29.1235,-88.3609,37.8,20.1,11111222
W and T,ioos:station:wmo:42901:1,2020-02-11T18:00:00Z,29.1235,-88.3609,37.8,20.2,11111222
W and T,ioos:station:wmo:42901:1,2020-02-11T18:20:00Z,29.1235,-88.3609,37.8,20.4,11111222
W and T,ioos:station:wmo:42901:1,2020-02-11T18:40:00Z,29.1235,-88.3609,37.8,20.4,11111222
W and T,ioos:station:wmo:42901:1,2020-02-11T19:00:00Z,29.1235,-88.3609,37.8,20.2,11111222
W and T,ioos:station:wmo:42901:1,2020-02-11T21:40:00Z,29.1235,-88.3609,35.5,20.0,11111222
W and T,ioos:station:wmo:42901:1,2020-02-11T22:00:00Z,29.1235,-88.3609,35.5,19.9,11111222
W and T,ioos:station:wmo:42901:1,2020-02-11T22:20:00Z,29.1235,-88.3609,35.5,19.9,11111222
W and T,ioos:station:wmo:42901:1,2020-02-11T22:40:00Z,29.1235,-88.3609,35.6,19.9,11111222
W and T,ioos:station:wmo:42901:1,2020-02-11T23:00:00Z,29.1235,-88.3609,35.6,19.9,11111222
W and T,ioos:station:wmo:42901:1,2020-02-11T23:20:00Z,29.1235,-88.3609,35.5,19.9,11111222
W and T,ioos:station:wmo:42901:1,2020-02-11T23:40:00Z,29.1235,-88.3609,35.5,19.9,11111222
W and T,ioos:station:wmo:42901:1,2020-02-12T00:00:00Z,29.1235,-88.3609,35.7,19.9,11111222
W and T,ioos:station:wmo:42901:1,2020-02-12T00:20:00Z,29.1235,-88.3609,35.7,19.9,11111222
W and T,ioos:station:wmo:42901:1,2020-02-12T00:40:00Z,29.1235,-88.3609,35.7,19.9,11111222
W and T,ioos:station:wmo:42901:1,2020-02-12T01:00:00Z,29.1235,-88.3609,35.7,19.9,11111222
W and T,ioos:station:wmo:42901:1,2020-02-12T01:20:00Z,29.1235,-88.3609,35.7,19.9,11111222
W and T,ioos:station:wmo:42901:1,2020-02-12T01:40:00Z,29.1235,-88.3609,35.7,20.0,11111222
W and T,ioos:station:wmo:42901:1,2020-02-12T02:00:00Z,29.1235,-88.3609,35.7,19.9,11111222
W and T,ioos:station:wmo:42901:1,2020-02-12T02:20:00Z,29.1235,-88.3609,35.7,19.9,11111222
W and T,ioos:station:wmo:42901:1,2020-02-12T02:40:00Z,29.1235,-88.3609,35.7,20.0,11111222
W and T,ioos:station:wmo:42901:1,2020-02-12T03:00:00Z,29.1235,-88.3609,35.7,20.3,11111222
W and T,ioos:station:wmo:42901:1,2020-02-12T03:20:00Z,29.1235,-88.3609,35.7,20.3,11111222
W and T,ioos:station:wmo:42901:1,2020-02-12T03:40:00Z,29.1235,-88.3609,35.7,20.0,11111222
W and T,ioos:station:wmo:42901:1,2020-02-12T04:00:00Z,29.1235,-88.3609,35.7,20.4,11111222
W and T,ioos:station:wmo:42901:1,2020-02-12T04:20:00Z,29.1235,-88.3609,35.6,20.1,11111222
W and T,ioos:station:wmo:42901:1,2020-02-12T04:40:00Z,29.1235,-88.3609,35.7,20.0,11111222
W and T,ioos:station:wmo:42901:1,2020-02-12T05:00:00Z,29.1235,-88.3609,35.6,20.1,11111222
W and T,ioos:station:wmo:42901:1,2020-02-12T05:20:00Z,29.1235,-88.3609,35.6,20.1,11111222
W and T,ioos:station:wmo:42901:1,2020-02-12T05:40:00Z,29.1235,-88.3609,35.9,20.0,11111222